Hourly Weather Roundup
Issued by NWS

Current Version | Previous Version | Text Only | Print | Product List | Glossary On
Versions: 1 2 3 4 5 6 7 8 9 10 11 12 13 14 15 16 17 18 19 20 21 22 23 24 25 26 27 28 29 30 31 32 33 34 35 36 37 38 39 40 41 42 43 44 45 46 47 48 49 50
000
NZUS43 KILX 041610
HWRCRS

CRS HOURLY WEATHER ROUNDUP
NATIONAL WEATHER SERVICE, LINCOLN IL
1100 AM CDT WED MAY 04 2016


CITY           SKY/WX    TMP DP  RH WIND       PRES   REMARKS
CHAMPAIGN      PTSUNNY   57  46  66 N17G26    29.76R
LAWRENCEVILLE  PTSUNNY   61  51  70 N16       29.72R
PEORIA         PTSUNNY   56  41  57 N16G22    29.81R
SPRINGFIELD    MOSUNNY   61  48  62 N15G29    29.81R
$$


CITY           SKY/WX    TMP DP  RH WIND       PRES   REMARKS
BLOOMINGTON    PTSUNNY   56  45  66 N17G26    29.80R
DECATUR        PTSUNNY   56  46  69 N16       29.78R
EFFINGHAM      PTSUNNY   60  48  66 N17G23    29.77R
FLORA          PTSUNNY   62  49  61 N15G21    29.74R
GALESBURG      CLOUDY    55  45  68 N18G25    29.85R
JACKSONVILLE   MOSUNNY   59  46  60 N18       29.82R
LACON          CLOUDY    53  40  62 N17G25    29.81R
LINCOLN        PTSUNNY   58  48  70 N14G20    29.80R
LITCHFIELD     MOSUNNY   59  45  59 N17G23    29.79R

CITY           SKY/WX    TMP DP  RH WIND       PRES   REMARKS
MACOMB         PTSUNNY   56  46  69 N17       29.88R
MATTOON        PTSUNNY   58  44  60 N18       29.75R
MOLINE         SUNNY     57  39  51 N14G26    29.85R
OLNEY          PTSUNNY   59  50  72 N15G21    29.73R
PARIS          PTSUNNY   56  47  72 N10G16    29.75R
PONTIAC        CLOUDY    54  44  69 N21       29.78R
QUINCY         MOSUNNY   61  44  53 N17       29.86R
RANTOUL        PTSUNNY   57  45  64 N17G23    29.76R
ROBINSON       MOSUNNY   58  51  77 N10G17    29.73S
TAYLORVILLE    PTSUNNY   57  47  69 NW21G28   29.80R
TERRE HAUTE    PTSUNNY   58  47  66 N15       29.72R
$$


CITY           SKY/WX    TMP DP  RH WIND       PRES   REMARKS
BURLINGTON     PTSUNNY   57  45  64 N17       29.87R
CHICAGO        PTSUNNY   49  38  65 NW17G25   29.77R
DES MOINES     MOSUNNY   60  35  39 N14G23    29.98R
EVANSVILLE     PTSUNNY   58  50  75 W10       29.73R
INDIANAPOLIS   PTSUNNY   54  47  77 NW14      29.68R
KANSAS CITY    SUNNY     64  43  46 N8G18     29.99R
MILWAUKEE      CLOUDY    48  35  60 NW16G26   29.77R
ST LOUIS       MOSUNNY   65  45  48 N10G23    29.80R
$$





USA.gov is the U.S. government's official web portal to all federal, state and local government web resources and services.